SCP
0 0 0 0 0 0 0 0 0 0 0 0 0 0 0 0 0 0 0 0 0 0 0 0 0 0 0 0 0 0 0 0 0 0 0 0 0 0 0 0 0 0 0
0 0 0 0 0 0 0 0 0 0 0 0 0 0 0 0 0 0 0 0 0 0 0 0 0 0 0 0 0 0 0 0 0 0 0 0 0 0 0 0 0 0 0
0 0 0 0 0 0 0 0 0 0 0 0 0 0 0 0 0 0 0 0 0 0 0 0 0 0 0 0 0 0 0 0 0 0 0 0 0 0 0 0 0 0 0
0 0 0 0 0 0 0 0 0 0 0 0 0 0 0 0 0 0 0 0 0 0 0 0 0 0 0 0 0 0 0 0 0 0 0 0 0 0 0 0 0 0 0
0 0 0 0 0 0 0 0 0 0 0 0 0 0 0 0 0 0 0 0 0 0 0 0 0 0 0 0 0 0 0 0 0 0 0 0 0 0 0 0 0 0 0
0 0 0 0 0 0 0 0 0 0 0 0 0 0 0 0 0 0 0 0 0 0 0 0 0 0 0 0 0 0 0 0 0 0 0 0 0 0 0 0 0 0 0
0 0 0 0 0 0 0 0 0 0 0 0 0 0 0 0 0 0 0 0 0 0 0 0 0 0 0 0 0 0 0 0 0 0 0 0 0 0 0 0 0 0 0
0 0 0 0 0 0 0 0 0 0 0 0 0 0 0 0 0 0 0 0 0 0 0 0 0 0 0 0 0 0 0 0 0 0 0 0 0 0 0 0 0 0 0
0 0 0 0 0 0 0 0 0 0 0 0 0 0 0 0 0 0 0 0 0 0 0 0 0 0 0 0 0 0 0 0 0 0 0 0 0 0 0 0 0 0 0
0 0 0 0 0 0 0 0 0 0 0 0 0 0 0 0 0 0 0 0 0 0 0 0 0 0 0 0 0 0 0 0 0 0 0 0 0 0 0 0 0 0 0
0 0 0 0 0 0 0 0 0 0 0 0 0 0 0 0 0 0 0 0 0 0 0 0 0 0 0 0 0 0 0 0 0 0 0 0 0 0 0 0 0 0 0
0 0 0 0 0 0 0 0 0 0 0 0 0 0 0 0 0 0 0 0 0 0 0 0 0 0 0 0 0 0 0 0 0 0 0 0 0 0 0 0 0 0 0
0 0 0 0 0 0 0 0 0 0 0 0 0 0 0 0 0 0 0 0 0 0 0 0 0 0 0 0 0 0 0 0 0 0 0 0 0 0 0 0 0 0 0
0 0 0 0 0 0 0 0 0 0 0 0 0 0 0 0 0 0 0 0 0 0 0 0 0 0 0 0 0 0 0 0 0 0 0 0 0 0 0 0 0 0 0
0 0 0 0 0 0 0 0 0 0 0 0 0 0 0 0 0 0 0 0 0 0 0 0 0 0 0 0 0 0 0 0 0 0 0 0 0 0 0 0 0 0 0
0 0 0 0 0 0 0 0 0 0 0 0 0 0 0 0 0 0 0 0 0 0 0 0 0 0 0 0 0 0 0 0 0 0 0 0 0 0 0 0 0 0 0
0 0 0 0 0 0 0 0 0 0 0 0 0 0 0 0 0 0 0 0 0 0 0 0 0 0 0 0 0 0 0 0 0 0 0 0 0 0 0 0 0 0 0
0 0 0 0 0 0 0 0 0 0 0 0 0 0 0 0 0 0 0 0 0 0 0 0 0 0 0 0 0 0 0 0 0 0 0 0 0 0 0 0 0 0 0
0 0 0 0 0 0 0 0 0 0 0 0 0 0 0 0 0 0 0 0 0 0 0 0 0 0 0 0 0 0 0 0 0 0 0 0 0 0 0 0 0 0 0
0 0 0 0 0 0 0 0 0 0 0 0 0 0 0 0 0 0 0 0 0 0 0 0 0 0 0 0 0 0 0 0 0 0 0 0 0 0 0 0 0 0 0
0 0 0 0 0 0 0 0 0 0 0 0 0 0 0 0 0 0 0 0 0 0 0 0 0 0 0 0 0 0 0 0 0 0 0 0 0 0 0 0 0 0 0
0 0 0 0 0 0 0 0 0 0 0 0 0 0 -0 0 0 0 0 0 0 0 0 0 0 0 0 0 0 0 0 0 0 0 0 0 0 0 0 0 0 0 0
0 0 0 0 0 0 0 0 0 0 0 0 0 0 0 0 0 0 0 0 0 0 0 0 0 0 0 0 0 0 0 0 0 0 0 0 0 0 0 0 0 0 0
0 0 0 0 0 0 0 0 0 0 0 0 0 0 0 0 0 0 0 0 0 0 0 0 0 0 0 0 0 0 0 0 0 0 0 0 0 0 0 0 0 0 0
0 0 0 0 0 0 0 0 0 0 0 0 0 0 0 0 0 0 0 0 0 0 0 0 0 0 0 0 0 0 0 0 0 0 0 0 0 0 0 0 0 0 0
0 0 0 0 0 0 -0 -0 0 0 0 0 0 0 0 0 0 0 0 0 0 0 0 0 0 0 0 0 0 0 0 0 0 0 0 0 0 0 0 0 0 0 0
Wind_Speed
7 6 6 7 7 6 6 6 5 4 4 3 2 2 1 1 1 1 2 2 3 3 4 3 3 3 3 3 3 3 3 2 2 3 3 3 3 3 2 2 2 2 2
5 5 6 7 7 7 7 6 6 5 4 3 2 2 2 1 1 1 2 2 2 3 4 4 3 3 3 3 3 3 2 1 1 2 2 2 3 3 2 2 1 2 1
9 8 7 7 7 7 8 7 6 5 4 4 3 2 2 2 1 1 0 0 1 2 3 4 3 3 3 3 2 3 3 2 0 1 3 3 2 1 2 2 1 1 1
7 8 8 7 8 7 7 7 6 5 4 5 4 4 3 2 2 2 1 0 1 2 3 3 3 3 3 3 2 3 2 3 1 0 1 2 3 3 0 2 2 1 1
9 9 10 9 8 7 7 6 6 5 5 5 5 5 3 2 1 1 1 0 0 0 1 2 3 3 2 3 2 2 2 2 2 2 1 1 1 2 3 1 2 2 1
8 8 7 7 5 6 6 6 6 5 4 5 5 5 5 4 3 2 2 1 0 0 1 2 2 2 2 2 2 2 2 2 2 2 2 2 2 2 2 2 2 1 2
8 7 7 7 7 7 7 6 7 5 5 5 5 5 5 5 5 4 3 2 1 1 2 2 2 2 2 2 2 2 2 2 2 2 2 2 2 2 3 3 2 1 1
8 9 9 9 8 8 8 7 7 6 6 6 5 4 5 4 3 4 3 3 3 3 3 3 3 3 3 2 2 1 1 1 1 2 2 1 2 2 3 4 4 2 1
8 9 9 9 8 8 8 9 8 6 6 6 5 4 4 4 4 3 3 3 2 2 3 3 3 2 2 2 2 1 1 1 1 2 2 1 1 1 2 3 4 5 3
6 7 8 8 8 8 7 7 7 7 7 6 6 5 5 5 4 3 3 3 3 3 3 3 3 3 2 2 2 1 1 1 0 1 1 1 1 1 1 2 2 3 4
7 7 7 7 7 6 6 6 6 6 6 6 5 5 4 4 4 3 4 3 3 3 3 4 4 3 3 2 2 2 2 2 1 0 1 1 0 1 1 1 2 2 3
6 6 6 5 5 6 6 6 6 6 6 6 5 5 4 4 4 4 3 3 3 3 3 3 3 4 3 3 3 3 2 2 2 1 1 1 1 1 1 1 2 2 2
4 4 4 5 5 5 5 6 6 6 6 6 5 5 4 5 5 4 4 3 3 3 3 3 4 4 4 4 4 4 3 3 3 2 2 2 2 1 1 2 2 2 2
5 4 4 4 4 5 5 5 5 5 5 5 6 6 6 6 6 5 4 4 3 3 3 3 3 3 3 4 4 4 3 3 2 2 2 2 3 3 3 2 3 2 2
4 5 4 4 4 4 4 4 4 5 5 6 6 6 5 5 5 4 4 4 3 3 3 3 3 2 3 3 4 4 4 3 3 2 2 2 3 4 4 3 3 4 3
5 4 4 4 4 4 4 3 4 4 5 6 6 5 5 4 4 4 4 4 3 3 3 3 3 3 3 4 5 5 4 4 4 3 3 3 3 3 4 5 5 6 5
4 4 4 4 4 4 4 4 4 3 4 4 4 5 5 5 4 4 4 4 4 3 3 3 3 3 3 5 5 6 4 4 4 4 3 3 3 3 2 3 4 4 6
3 3 3 3 3 3 3 3 2 3 4 3 3 4 4 5 4 4 4 4 3 3 3 3 3 3 3 4 5 5 4 3 4 4 4 4 3 3 3 2 2 2 3
4 4 4 3 2 3 3 3 3 3 3 3 3 4 4 4 4 4 4 4 3 3 3 3 3 3 3 4 4 4 3 2 3 3 3 3 3 4 5 4 3 2 3
2 2 2 2 2 2 3 4 3 3 3 3 3 3 4 4 4 5 4 3 3 4 3 2 3 3 3 3 4 4 2 2 2 1 2 3 3 4 5 4 4 4 3
1 1 2 2 3 3 3 3 3 3 4 3 2 2 3 4 4 4 3 3 3 3 3 3 2 2 3 2 3 3 3 3 3 2 2 2 3 4 4 5 4 5 3
0 1 2 2 2 3 4 3 3 4 2 2 2 2 3 3 3 3 3 3 3 3 3 2 2 1 2 2 2 3 3 4 4 3 3 3 3 4 4 4 3 3 3
1 1 2 2 2 2 4 5 4 3 3 2 2 2 2 2 2 3 3 2 3 3 3 3 3 2 2 2 2 3 4 4 3 3 4 4 4 4 3 3 3 3 2
2 1 2 2 2 3 3 4 4 3 3 3 2 2 1 1 1 2 3 3 3 4 4 4 4 3 2 2 2 2 3 3 3 2 2 3 3 2 2 1 1 2 2
2 2 3 3 4 3 3 3 3 4 4 3 2 2 2 2 1 1 2 3 4 5 6 5 5 4 4 5 5 4 3 3 3 2 1 1 1 1 1 1 1 1 1
3 2 3 3 3 3 3 3 4 4 5 3 3 2 2 2 1 1 1 1 3 4 6 7 6 5 6 5 5 5 4 4 4 3 2 2 3 3 3 3 2 2 2
Wind_Direction
202 182 170 157 151 147 143 143 140 143 133 123 121 124 122 102 64 84 100 102 115 120 120 118 112 114 114 119 117 106 90 74 86 82 54 22 27 43 47 58 71 69 75
183 177 164 159 161 159 161 155 154 156 154 153 158 154 149 149 134 81 84 98 115 126 133 132 135 133 121 113 113 112 102 91 89 111 98 40 1 0 19 30 69 72 73
182 179 170 172 166 163 165 163 162 157 157 148 119 96 74 57 50 49 63 150 131 128 135 143 143 145 140 144 144 139 136 149 347 116 135 140 190 297 338 356 18 40 70
177 175 172 174 173 173 165 159 161 157 154 145 139 141 145 169 200 195 197 212 129 129 139 145 148 150 148 155 169 155 156 149 166 241 140 157 155 152 209 328 334 351 71
177 176 178 181 176 166 162 161 161 159 157 153 154 149 149 174 175 159 152 144 353 133 143 142 144 150 156 167 169 156 157 159 165 174 157 125 113 132 143 204 299 330 319
180 180 177 169 164 159 155 156 158 165 164 156 155 155 158 159 148 158 174 183 191 253 201 154 144 152 156 171 175 169 169 176 171 172 168 165 162 174 153 165 205 252 292
174 172 168 169 169 164 165 165 163 171 173 167 170 172 172 169 171 175 181 180 186 214 217 174 164 165 174 172 158 155 166 174 175 184 192 192 195 170 153 149 168 191 279
177 176 177 176 176 174 172 171 174 178 178 176 182 180 175 171 178 183 180 187 198 210 204 183 172 173 170 166 153 149 184 171 187 203 198 187 208 177 164 158 150 138 320
182 180 180 179 178 178 181 180 178 179 181 181 181 179 179 176 181 185 181 189 200 199 192 184 176 171 169 170 164 171 205 185 205 220 213 202 220 181 173 160 159 152 168
181 182 182 185 185 184 183 178 178 183 185 183 184 182 185 188 184 177 183 193 200 196 185 184 183 179 177 165 159 173 194 147 187 178 166 231 217 172 163 162 161 152 157
181 183 187 189 184 178 178 180 184 184 183 186 185 182 187 188 182 183 194 196 197 192 190 190 188 183 185 178 166 180 177 165 191 188 154 203 161 145 153 145 141 147 146
180 179 178 175 176 181 185 188 189 189 193 188 180 184 185 183 184 192 200 194 194 192 188 182 183 187 186 182 176 183 180 169 182 212 181 207 155 153 168 154 160 163 160
170 164 161 168 178 187 189 190 191 195 192 183 180 181 184 188 194 198 198 190 186 184 188 181 188 193 190 189 189 184 182 180 193 199 189 203 172 195 199 174 171 175 167
170 167 172 182 186 187 186 188 197 195 188 182 182 186 193 195 197 196 191 190 184 179 184 189 195 199 198 195 191 183 183 186 196 201 197 192 185 202 202 191 186 171 151
162 173 181 189 187 183 188 190 197 197 187 182 189 197 197 190 186 187 187 186 184 189 187 182 193 200 199 204 195 188 188 188 202 216 214 210 200 200 198 195 187 171 164
179 183 184 183 188 189 190 192 201 196 177 182 192 192 183 177 180 183 180 180 187 191 184 189 191 197 214 212 200 187 187 190 197 212 223 225 218 219 210 203 193 181 178
185 184 189 195 200 200 190 187 195 180 169 179 187 184 177 177 183 180 172 183 190 182 184 194 187 200 219 211 205 196 188 192 203 205 205 221 225 212 208 213 213 217 211
187 192 191 195 198 188 173 162 143 154 162 168 180 179 176 184 184 176 184 194 185 180 188 196 199 203 223 213 206 201 196 201 215 214 207 210 225 217 197 188 196 227 226
191 196 193 185 176 171 165 141 139 143 154 175 186 185 176 178 180 188 202 201 183 185 193 193 195 199 232 222 210 196 186 198 221 225 212 209 214 214 191 180 198 234 260
190 177 162 142 151 178 152 141 159 161 185 201 201 195 180 177 185 197 203 199 185 194 189 192 200 203 222 226 213 197 184 196 221 235 232 222 215 211 189 185 192 212 237
222 170 143 155 187 181 151 155 172 199 209 199 186 185 188 188 193 195 195 186 178 174 180 192 212 214 215 217 203 196 191 197 202 213 229 236 220 211 197 186 197 215 206
233 181 161 189 200 176 160 174 204 216 195 172 177 195 203 200 188 181 192 183 171 170 186 192 210 229 230 218 212 209 209 200 194 213 221 219 206 201 197 196 203 205 183
214 205 182 190 219 200 178 190 216 201 165 153 174 198 209 208 185 175 182 180 173 176 191 193 206 227 240 242 228 227 228 216 208 215 205 197 200 200 206 210 201 187 172
245 217 182 196 230 229 212 207 203 179 158 164 184 195 181 198 200 179 181 184 187 188 193 199 210 220 223 232 237 240 240 229 226 227 205 191 188 187 183 188 206 197 188
265 233 213 216 231 232 227 210 191 171 171 179 188 192 193 189 197 200 204 203 211 202 199 207 205 203 220 228 221 218 223 217 211 177 131 135 161 179 200 211 219 203 194
254 249 242 234 237 234 231 216 200 183 178 184 192 192 190 195 191 186 290 286 237 230 219 214 210 220 221 215 214 226 233 224 188 159 172 195 201 207 211 213 220 214 213